Weather in Chernysheno

Russia / Kaluga Oblast     53°50′36″N   35°16′28″E
temp.,
°C
wind,
m/s
gust,
m/s
humid.,
%
clouds,
%
prec.,
mm/h
press.,
hPa
HPBL,
m
7 march, sun
sun700:00−9wsw310880 0.0 1018288
03:00−8sw5138211 0.0 1015474
06:00−7sw6158280 0.0 1011703
09:00−5sw8178090 0.0 10061073
12:00−2sw81788100 0.5 10021130
15:000wsw81787100 1.6 9991362
18:00−1wnw61196100 2.5 998904
21:00−4w5147597 3.9 1000993
8 march, mon
mon800:00−6w413780 0.0 1001535
03:00−6wsw412836 0.0 1001520
06:00−6w5118985 0.1 1001899
09:00−6w5118692 0.1 1002682
12:00−3wnw5876100 0.1 10051119
15:00−3wnw4677100 0.2 1006979
18:00−6nw378292 0.2 1008456
21:00−9nw249385 0.3 1010120
9 march, tue
tue900:00−8nnw389399 0.1 1012422
03:00−10n379499 0.3 1014376
06:00−14nnw269695 0.1 1015227
09:00−13nnw368974 0.1 1018326
12:00−9nnw357885 0.0 1019749
15:00−8nw357491 0.1 1019924
18:00−9nw2686100 0.1 1020474
21:00−12nnw2394100 0.1 102397
10 march, wed
wed1000:00−15n129233 0.0 102420
03:00−16nne119322 0.0 102620
06:00−16e119393 0.0 102628
09:00−13sse128795 0.0 1027232
12:00−9sse2386100 0.3 1027426
15:00−8s3689100 0.8 1026605
18:00−7ssw2594100 0.7 1025409
21:00−8s2595100 1.4 1026232
11 march, thu
thu1100:00−9s2596100 0.5 1027199
03:00−9ssw1397100 0.9 102788
06:00−10ssw2397100 0.2 102799
09:00−9ssw2493100 0.2 1028245
12:00−5s348292 0.0 1027533
15:00−3s357789 0.0 1026772
18:00−6s378758 0.0 1025270
21:00−9s399329 0.0 1026239